Content
SEND FEEDBACK

Daily
Averages
Monthly
Summary
United States of America

RED BLUFF, CALIFORNIA


Home > North America > United States > California
Elevation: 344 feet     Latitude: 40 09N     Longitude: 122 15W

WEATHER
 
SELECT A DAY
Number of Records: 185,479;   Date Range: 1/1/95 - 10/19/14
 
SHARE

PRINT THIS DATA

[ ← Previous Day ]
WEATHER ALMANAC - JANUARY 1, 2013
[ Next Day → ]
[ °C ]   °F
Weather ElementAverageHighLow
Temperature41.7 °F57.2 °F (2:54 pm)30 °F (4:54 am)
Dewpoint23.3 °F28.9 °F (9:54 am)17.6 °F (1:54 pm)
Humidity53.8 %85 % (4:54 am)21 % (2:54 pm)
Barometer30.29 in30.35 in (10:54 am)30.25 in (2:54 pm)
Wind Speed8.6 mph17.3 mph (1:54 pm)
Wind Gust21.9 mph (1:54 pm)
Weather ElementAverage
Visibility10 mi
Wind DirectionWNW (297.8 °)

Weather ElementTotal
Precipitation---
Heating Degree Days21.4 (Base 65)
Averaged from 23 records on January 1, 2013
WEATHER CONDITIONS BREAKOUT
WIND DIRECTION BREAKOUT
WEATHER BY HOUR - JANUARY 1, 2013
[ °C ]   °F
Local TimeTemperatureDewpointHumidityBarometerVisibilityWind DirectionWind SpeedGust SpeedPrecipitationEventsConditions
1:54 AM30.9 °F26.1 °F82 %30.30 in10.0 miNNW (330°)6.9 mphClear
2:54 AM32.0 °F26.6 °F80 %30.30 in10.0 miNNW (330°)8.1 mphClear
3:54 AM30.9 °F26.1 °F82 %30.31 in10.0 miNNW (340°)4.6 mphClear
4:54 AM30.0 °F26.1 °F85 %30.32 in10.0 miNorth (10°)5.8 mphClear
5:54 AM30.0 °F26.1 °F85 %30.31 in10.0 miNNW (340°)6.9 mphClear
6:54 AM30.9 °F25.0 °F79 %30.31 in10.0 miNW (320°)9.2 mphClear
7:54 AM30.9 °F26.1 °F82 %30.31 in10.0 miNorth (350°)10.4 mphClear
8:54 AM35.1 °F28.0 °F76 %30.33 in10.0 miNorth (350°)6.9 mphClear
9:54 AM39.9 °F28.9 °F65 %30.34 in10.0 miNNW (340°)5.8 mphClear
10:54 AM48.9 °F27.0 °F43 %30.35 in10.0 miNNW (340°)15.0 mphClear
11:54 AM53.1 °F26.1 °F35 %30.32 in10.0 miNNE (20°)12.7 mphClear
12:54 PM54.0 °F19.0 °F25 %30.29 in10.0 miNorth (360°)15.0 mphClear
1:54 PM55.4 °F17.6 °F23 %30.26 in10.0 miNorth (350°)17.3 mph21.9 mphClear
2:54 PM57.2 °F17.6 °F21 %30.25 in10.0 miNorth (360°)16.1 mphClear
3:54 PM55.9 °F18.0 °F23 %30.26 in10.0 miNorth (360°)8.1 mphClear
4:54 PM51.1 °F19.9 °F29 %30.26 in10.0 miNorth (350°)5.8 mphClear
5:54 PM48.0 °F21.0 °F34 %30.26 in10.0 miNNW (330°)5.8 mphClear
6:54 PM46.9 °F19.9 °F34 %30.27 in10.0 miNNW (330°)5.8 mphClear
7:54 PM44.1 °F19.9 °F38 %30.27 in10.0 miNorth (350°)5.8 mphClear
8:54 PM39.9 °F23.0 °F51 %30.29 in10.0 miCalmClear
9:54 PM37.0 °F23.0 °F57 %30.29 in10.0 miNNW (330°)5.8 mphClear
10:54 PM39.0 °F23.0 °F53 %30.30 in10.0 miNW (310°)6.9 mphClear
11:54 PM37.9 °F23.0 °F55 %30.28 in10.0 miNorth (350°)12.7 mphClear
Hourly data recorded from KRBL, located miles away from Red Bluff, California







STORIES FROM OUR PARTNERS